Tracking 31027 objects as of 19-Jul-2025
HD Live streaming from Space Station
objects crossing your sky now

COSMOS 839 DEB

Track COSMOS 839 DEB now!
10-day predictions


NORAD ID: 13501
Int'l Code: 1976-067BB
Perigee: 1,017.3 km
Apogee: 2,010.9 km
Inclination: 66.0 °
Period: 116.1 minutes
Semi major axis: 7885 km
RCS: 0.0403 m2 (small)
Launch date: July 8, 1976
Source: Commonwealth of Independent States (former USSR) (CIS)
Launch site: PLESETSK MISSILE AND SPACE COMPLEX (PKMTR)

Note: This is SATELLITE DEBRIS
Your satellite tracking list
BELINTERSAT 1
Track 1 satellite(s)




NASA's NSSDC Master Catalog

Two Line Element Set (TLE):
1 13501U 76067BB  25198.69927832 -.00000427  00000-0 -13930-2 0  9990
2 13501  66.0297  98.3519 0630019 274.6921 104.3786 12.39914664999503
Source of the keplerian elements: AFSPC